Photometre #543[NE_1.6] Beijing-CAMS AOT

File : 20200928_543.hum

28/09/2020,00:04:42,TEMP=19.7,BA=5.64,STAT.A=16.0,ExtBa=12.44
28/09/2020,00:14:17,TEMP=20.2,BA=5.64,STAT.A=16.0,ExtBa=12.45
28/09/2020,00:25:47,TEMP=20.9,BA=5.64,STAT.A=16.0,ExtBa=12.46
28/09/2020,00:39:22,TEMP=22.0,BA=5.60,STAT.D=16.0,ExtBa=12.47
28/09/2020,00:41:13,TEMP=22.4,BA=5.56,STAT.A=16.0,ExtBa=12.41
28/09/2020,00:45:22,TEMP=22.5,BA=5.56,STAT.D=16.0,ExtBa=12.40
28/09/2020,00:48:22,TEMP=22.8,BA=5.56,STAT.D=16.0,ExtBa=12.39
28/09/2020,00:57:54,TEMP=23.2,BA=5.64,STAT.B=16.5,ExtBa=12.42
28/09/2020,01:07:29,TEMP=24.1,BA=5.52,STAT.F,ExtBa=12.31
28/09/2020,01:22:23,TEMP=25.5,BA=5.48,STAT.D=16.0,ExtBa=12.21
28/09/2020,01:24:22,TEMP=25.8,BA=5.48,STAT.D=16.0,ExtBa=12.21
28/09/2020,01:27:22,TEMP=25.9,BA=5.48,STAT.D=16.0,ExtBa=12.22
28/09/2020,01:30:22,TEMP=26.1,BA=5.64,STAT.D=16.0,ExtBa=12.23
28/09/2020,01:33:22,TEMP=26.3,BA=5.64,STAT.D=16.0,ExtBa=12.23
28/09/2020,01:35:42,TEMP=26.6,BA=5.64,STAT.D=16.0,ExtBa=12.22
28/09/2020,01:39:22,TEMP=26.7,BA=5.64,STAT.D=16.0,ExtBa=12.23
28/09/2020,01:42:22,TEMP=26.9,BA=5.52,STAT.D=16.0,ExtBa=12.22
28/09/2020,01:45:22,TEMP=27.1,BA=5.52,STAT.D=16.0,ExtBa=12.22
28/09/2020,01:48:22,TEMP=27.3,BA=5.52,STAT.D=16.0,ExtBa=12.22
28/09/2020,01:50:42,TEMP=27.4,BA=5.56,STAT.D=16.0,ExtBa=12.21
28/09/2020,01:54:22,TEMP=27.4,BA=5.56,STAT.D=16.5,ExtBa=12.23
28/09/2020,01:57:22,TEMP=27.6,BA=5.56,STAT.D=16.0,ExtBa=12.22
28/09/2020,02:00:22,TEMP=27.6,BA=5.64,STAT.D=16.5,ExtBa=12.22
28/09/2020,02:03:22,TEMP=27.6,BA=5.64,STAT.D=16.0,ExtBa=12.22
28/09/2020,02:05:44,TEMP=27.7,BA=5.64,STAT.F,ExtBa=12.21
28/09/2020,02:20:42,TEMP=27.7,BA=5.52,STAT.D=16.5,ExtBa=12.42
28/09/2020,02:24:23,TEMP=27.8,BA=5.52,STAT.D=16.5,ExtBa=12.51
28/09/2020,02:27:22,TEMP=28.0,BA=5.52,STAT.D=16.5,ExtBa=12.54
28/09/2020,02:30:22,TEMP=28.4,BA=5.64,STAT.D=16.5,ExtBa=12.53
28/09/2020,02:33:22,TEMP=28.7,BA=5.64,STAT.D=16.5,ExtBa=12.53
28/09/2020,02:35:42,TEMP=29.0,BA=5.64,STAT.D=16.5,ExtBa=12.53
28/09/2020,02:39:23,TEMP=29.0,BA=5.64,STAT.D=16.5,ExtBa=12.58
28/09/2020,02:42:23,TEMP=29.3,BA=5.48,STAT.D=16.5,ExtBa=12.59
28/09/2020,02:45:22,TEMP=29.4,BA=5.48,STAT.D=16.5,ExtBa=12.59
28/09/2020,02:48:23,TEMP=29.3,BA=5.48,STAT.D=16.5,ExtBa=12.59
28/09/2020,02:50:42,TEMP=29.4,BA=5.56,STAT.D=16.5,ExtBa=12.57
28/09/2020,02:54:23,TEMP=29.3,BA=5.56,STAT.D=16.5,ExtBa=12.59
28/09/2020,02:57:23,TEMP=29.5,BA=5.56,STAT.D=16.5,ExtBa=12.61
28/09/2020,03:00:23,TEMP=29.7,BA=5.64,STAT.D=16.5,ExtBa=12.61
28/09/2020,03:03:23,TEMP=29.9,BA=5.64,STAT.D=16.5,ExtBa=12.63
28/09/2020,03:05:44,TEMP=29.8,BA=5.64,STAT.F,ExtBa=12.58
28/09/2020,03:21:25,TEMP=29.2,BA=5.44,STAT.D=16.5,ExtBa=10.53
28/09/2020,03:24:23,TEMP=29.4,BA=5.44,STAT.D=16.5,ExtBa=10.70
28/09/2020,03:27:23,TEMP=29.5,BA=5.44,STAT.D=16.5,ExtBa=10.80
28/09/2020,03:30:23,TEMP=29.6,BA=5.64,STAT.D=16.5,ExtBa=11.52
28/09/2020,03:33:23,TEMP=29.8,BA=5.64,STAT.D=16.5,ExtBa=11.97
28/09/2020,03:35:43,TEMP=30.1,BA=5.64,STAT.D=16.5,ExtBa=11.91
28/09/2020,03:39:23,TEMP=30.1,BA=5.64,STAT.D=16.5,ExtBa=12.21
28/09/2020,03:42:23,TEMP=30.1,BA=5.48,STAT.D=16.5,ExtBa=12.25
28/09/2020,03:45:23,TEMP=30.2,BA=5.48,STAT.D=16.5,ExtBa=12.18
28/09/2020,03:48:23,TEMP=30.3,BA=5.48,STAT.D=16.5,ExtBa=12.21
28/09/2020,03:50:43,TEMP=30.1,BA=5.52,STAT.D=16.5,ExtBa=11.69
28/09/2020,03:54:23,TEMP=29.4,BA=5.52,STAT.D=16.5,ExtBa=12.16
28/09/2020,03:57:23,TEMP=29.5,BA=5.52,STAT.D=16.5,ExtBa=12.28
28/09/2020,04:00:23,TEMP=29.5,BA=5.64,STAT.D=16.5,ExtBa=12.33
28/09/2020,04:03:23,TEMP=29.5,BA=5.64,STAT.D=16.5,ExtBa=12.37
28/09/2020,04:05:44,TEMP=29.7,BA=5.64,STAT.F,ExtBa=12.35
28/09/2020,04:20:43,TEMP=28.5,BA=5.64,STAT.D=16.5,ExtBa=10.58
28/09/2020,04:24:23,TEMP=28.6,BA=5.64,STAT.D=16.5,ExtBa=11.05
28/09/2020,04:27:23,TEMP=29.0,BA=5.64,STAT.D=16.5,ExtBa=11.28
28/09/2020,04:30:23,TEMP=29.1,BA=5.64,STAT.D=16.5,ExtBa=11.69
28/09/2020,04:33:23,TEMP=29.0,BA=5.64,STAT.D=16.5,ExtBa=11.89
28/09/2020,04:35:43,TEMP=28.9,BA=5.64,STAT.D=16.5,ExtBa=11.77
28/09/2020,04:39:23,TEMP=28.6,BA=5.64,STAT.D=16.5,ExtBa=12.05
28/09/2020,04:42:23,TEMP=28.7,BA=5.44,STAT.D=16.5,ExtBa=12.06
28/09/2020,04:45:23,TEMP=28.6,BA=5.44,STAT.D=16.5,ExtBa=12.29
28/09/2020,04:48:23,TEMP=28.6,BA=5.44,STAT.D=16.5,ExtBa=12.33
28/09/2020,04:50:43,TEMP=28.7,BA=5.52,STAT.D=16.5,ExtBa=12.33
28/09/2020,04:54:23,TEMP=28.6,BA=5.52,STAT.D=16.5,ExtBa=12.42
28/09/2020,04:57:23,TEMP=28.7,BA=5.52,STAT.D=16.5,ExtBa=12.44
28/09/2020,05:00:23,TEMP=28.7,BA=5.64,STAT.D=16.5,ExtBa=12.44
28/09/2020,05:03:23,TEMP=28.7,BA=5.64,STAT.D=16.5,ExtBa=12.44
28/09/2020,05:05:44,TEMP=28.8,BA=5.64,STAT.F,ExtBa=12.42
28/09/2020,05:21:07,TEMP=28.7,BA=5.44,STAT.D=16.5,ExtBa=10.45
28/09/2020,05:24:23,TEMP=28.8,BA=5.44,STAT.D=16.5,ExtBa=10.65
28/09/2020,05:27:22,TEMP=28.8,BA=5.44,STAT.D=16.5,ExtBa=11.15
28/09/2020,05:30:22,TEMP=28.7,BA=5.64,STAT.D=16.5,ExtBa=11.66
28/09/2020,05:33:23,TEMP=28.7,BA=5.64,STAT.D=16.5,ExtBa=12.03
28/09/2020,05:35:42,TEMP=28.8,BA=5.64,STAT.D=16.5,ExtBa=11.96
28/09/2020,05:39:22,TEMP=28.8,BA=5.64,STAT.D=16.5,ExtBa=12.24
28/09/2020,05:42:23,TEMP=28.7,BA=5.48,STAT.D=16.5,ExtBa=12.30
28/09/2020,05:45:22,TEMP=28.7,BA=5.48,STAT.D=16.5,ExtBa=12.34
28/09/2020,05:48:22,TEMP=28.6,BA=5.48,STAT.D=16.5,ExtBa=12.40
28/09/2020,05:50:42,TEMP=28.4,BA=5.52,STAT.D=16.5,ExtBa=12.38
28/09/2020,05:54:22,TEMP=28.2,BA=5.52,STAT.D=16.5,ExtBa=12.43
28/09/2020,05:57:22,TEMP=28.0,BA=5.52,STAT.D=16.5,ExtBa=12.46
28/09/2020,06:00:22,TEMP=27.9,BA=5.64,STAT.D=16.5,ExtBa=12.46
28/09/2020,06:03:22,TEMP=27.7,BA=5.64,STAT.D=16.5,ExtBa=12.48
28/09/2020,06:05:44,TEMP=27.7,BA=5.64,STAT.F,ExtBa=12.44
28/09/2020,06:20:42,TEMP=27.3,BA=5.48,STAT.D=16.5,ExtBa=10.43
28/09/2020,06:24:22,TEMP=27.4,BA=5.48,STAT.D=16.5,ExtBa=10.53
28/09/2020,06:27:22,TEMP=27.5,BA=5.48,STAT.D=16.5,ExtBa=10.80
28/09/2020,06:30:22,TEMP=27.4,BA=5.64,STAT.D=16.5,ExtBa=11.29
28/09/2020,06:33:22,TEMP=27.2,BA=5.64,STAT.D=16.5,ExtBa=11.77
28/09/2020,06:35:42,TEMP=27.1,BA=5.64,STAT.D=16.5,ExtBa=11.75
28/09/2020,06:39:22,TEMP=26.9,BA=5.64,STAT.D=16.5,ExtBa=12.16
28/09/2020,06:42:22,TEMP=26.8,BA=5.44,STAT.D=16.5,ExtBa=12.27
28/09/2020,06:45:22,TEMP=26.7,BA=5.44,STAT.D=16.5,ExtBa=12.31
28/09/2020,06:48:22,TEMP=26.5,BA=5.44,STAT.D=16.5,ExtBa=12.26
28/09/2020,06:50:42,TEMP=26.4,BA=5.52,STAT.D=16.5,ExtBa=11.64
28/09/2020,07:03:22,TEMP=25.5,BA=5.64,STAT.D=16.5,ExtBa=12.58
28/09/2020,07:05:44,TEMP=25.8,BA=5.64,STAT.F,ExtBa=12.35
28/09/2020,07:13:33,TEMP=25.5,BA=5.64,STAT.B=16.5,ExtBa=12.61
28/09/2020,07:24:22,TEMP=25.2,BA=5.64,STAT.D=16.5,ExtBa=12.63
28/09/2020,07:31:30,TEMP=25.1,BA=5.64,STAT.A=16.5,ExtBa=12.63
28/09/2020,07:42:22,TEMP=25.2,BA=5.64,STAT.D=16.5,ExtBa=12.61
28/09/2020,07:45:39,TEMP=25.4,BA=5.64,STAT.A=16.5,ExtBa=12.62
28/09/2020,07:57:09,TEMP=25.1,BA=5.64,STAT.A=16.5,ExtBa=12.59
28/09/2020,08:06:44,TEMP=25.1,BA=5.64,STAT.A=16.5,ExtBa=12.57
28/09/2020,08:14:52,TEMP=25.1,BA=5.64,STAT.C=16.5,ExtBa=12.54
28/09/2020,08:21:50,TEMP=25.1,BA=5.64,STAT.A=16.5,ExtBa=12.54
28/09/2020,08:27:55,TEMP=25.1,BA=5.64,STAT.A=16.5,ExtBa=12.53
28/09/2020,08:33:15,TEMP=25.0,BA=5.64,STAT.A=16.5,ExtBa=12.53
28/09/2020,08:37:59,TEMP=24.9,BA=5.64,STAT.A=16.5,ExtBa=12.53
28/09/2020,08:42:13,TEMP=24.8,BA=5.60,STAT.B=16.5,ExtBa=12.53
28/09/2020,08:51:03,TEMP=24.5,BA=5.64,STAT.A=16.5,ExtBa=12.51
28/09/2020,08:58:02,TEMP=24.3,BA=5.64,STAT.A=16.5,ExtBa=12.49
28/09/2020,09:03:41,TEMP=24.2,BA=5.60,STAT.A=16.5,ExtBa=12.49
28/09/2020,09:08:23,TEMP=24.2,BA=5.60,STAT.A=16.5,ExtBa=12.48
28/09/2020,09:12:20,TEMP=24.2,BA=5.52,STAT.A=16.5,ExtBa=12.48
28/09/2020,09:15:42,TEMP=24.2,BA=5.52,STAT.A=16.5,ExtBa=12.49
28/09/2020,22:56:44,TEMP=14.3,BA=5.64,STAT.A=16.0,ExtBa=12.49
28/09/2020,23:00:06,TEMP=14.6,BA=5.60,STAT.A=16.0,ExtBa=12.46
28/09/2020,23:04:04,TEMP=14.6,BA=5.60,STAT.A=16.0,ExtBa=12.45
28/09/2020,23:08:46,TEMP=14.4,BA=5.60,STAT.A=16.0,ExtBa=12.45
28/09/2020,23:14:26,TEMP=14.3,BA=5.60,STAT.A=16.0,ExtBa=12.45
28/09/2020,23:21:26,TEMP=14.2,BA=5.64,STAT.A=16.0,ExtBa=12.45
28/09/2020,23:30:17,TEMP=14.1,BA=5.64,STAT.B=16.0,ExtBa=12.45
28/09/2020,23:34:31,TEMP=14.2,BA=5.64,STAT.A=16.0,ExtBa=12.44
28/09/2020,23:39:16,TEMP=14.2,BA=5.64,STAT.A=16.0,ExtBa=12.43
28/09/2020,23:44:38,TEMP=14.2,BA=5.60,STAT.A=16.0,ExtBa=12.43
28/09/2020,23:50:43,TEMP=14.1,BA=5.64,STAT.A=16.0,ExtBa=12.43
28/09/2020,23:57:44,TEMP=14.1,BA=5.64,STAT.C=16.0,ExtBa=12.42